ABD209 BIKF-ENBR

Flight info

Callsign ABD209
Flight time N/A
Altitude 31000
Route OSKUM3A OSKUM DCT 63N010W DCT GUNPA/N0446F310 DCT MODNI
Aircraft A306/H-SDE3FGHIRWY/LB1

Departure

Time 2026-05-04 22:07
Airport Keflavik International Airport (BIKF)

Arrival

Time N/A
Airport Bergen Airport, Flesland (ENBR)
Time Latitude Longitude Altitude Speed Heading
2026-05-04 21:35 63.99256 -22.61263 167 ft 0 kts 90°
2026-05-04 21:54 63.99256 -22.61299 159 ft 4 kts 90°
2026-05-04 21:54 63.99256 -22.61360 158 ft 3 kts 90°
2026-05-04 21:55 63.99256 -22.61406 158 ft 4 kts 112°
2026-05-04 21:55 63.99268 -22.61439 157 ft 4 kts 174°
2026-05-04 21:55 63.99262 -22.61440 157 ft 4 kts 179°
2026-05-04 21:55 63.99249 -22.61440 158 ft 0 kts 179°
2026-05-04 21:59 63.99244 -22.61440 159 ft 3 kts 179°
2026-05-04 22:00 63.99203 -22.61416 159 ft 9 kts 150°
2026-05-04 22:00 63.99176 -22.61259 163 ft 13 kts 96°
2026-05-04 22:00 63.99169 -22.61039 169 ft 13 kts 106°
2026-05-04 22:00 63.99114 -22.60946 172 ft 10 kts 168°
2026-05-04 22:01 63.99001 -22.60936 177 ft 20 kts 179°
2026-05-04 22:01 63.98859 -22.60935 175 ft 21 kts 181°
2026-05-04 22:01 63.98703 -22.60937 173 ft 22 kts 180°
2026-05-04 22:01 63.98554 -22.60940 175 ft 21 kts 180°
2026-05-04 22:02 63.98405 -22.60942 172 ft 21 kts 179°
2026-05-04 22:02 63.98255 -22.60940 171 ft 22 kts 179°
2026-05-04 22:02 63.98106 -22.60937 173 ft 21 kts 179°
2026-05-04 22:02 63.97962 -22.60938 175 ft 20 kts 180°
2026-05-04 22:03 63.97819 -22.60938 176 ft 21 kts 180°
2026-05-04 22:03 63.97673 -22.60937 175 ft 21 kts 180°
2026-05-04 22:03 63.97518 -22.60936 172 ft 23 kts 180°
2026-05-04 22:03 63.97352 -22.60938 169 ft 25 kts 180°
2026-05-04 22:04 63.97171 -22.60939 163 ft 27 kts 180°
2026-05-04 22:04 63.96975 -22.60939 156 ft 30 kts 179°
2026-05-04 22:04 63.96760 -22.60940 148 ft 28 kts 179°
2026-05-04 22:04 63.96617 -22.60938 142 ft 16 kts 180°
2026-05-04 22:05 63.96509 -22.60934 141 ft 14 kts 173°
2026-05-04 22:05 63.96463 -22.60791 144 ft 10 kts 91°
2026-05-04 22:05 63.96463 -22.60670 149 ft 5 kts 90°
2026-05-04 22:05 63.96469 -22.60591 150 ft 4 kts 65°
2026-05-04 22:06 63.96499 -22.60556 152 ft 6 kts 14°
2026-05-04 22:06 63.96514 -22.60551 152 ft 0 kts
2026-05-04 22:06 63.96608 -22.60544 155 ft 38 kts
2026-05-04 22:07 63.97101 -22.60538 168 ft 102 kts
2026-05-04 22:07 63.98007 -22.60543 180 ft 158 kts
2026-05-04 22:07 63.98777 -22.60506 465 ft 174 kts
2026-05-04 22:07 64.00582 -22.60430 1227 ft 205 kts 360°
2026-05-04 22:08 64.01530 -22.60451 2073 ft 200 kts 359°
2026-05-04 22:08 64.03437 -22.60498 3114 ft 213 kts 360°
2026-05-04 22:08 64.04425 -22.60376 3699 ft 216 kts 10°
2026-05-04 22:08 64.05765 -22.58855 4549 ft 224 kts 44°
2026-05-04 22:09 64.06480 -22.55538 5087 ft 250 kts 79°
2026-05-04 22:09 64.06513 -22.51441 5747 ft 263 kts 90°
2026-05-04 22:09 64.06429 -22.47206 6566 ft 270 kts 90°
2026-05-04 22:09 64.06286 -22.42885 7364 ft 277 kts 98°
2026-05-04 22:10 64.05632 -22.38658 8123 ft 288 kts 115°
2026-05-04 22:10 64.04648 -22.34620 8906 ft 295 kts 118°
2026-05-04 22:10 64.03596 -22.30517 9703 ft 302 kts 118°
2026-05-04 22:10 64.02523 -22.26305 10325 ft 314 kts 118°
2026-05-04 22:11 64.01412 -22.21903 10621 ft 335 kts 118°
2026-05-04 22:11 64.00218 -22.17148 10890 ft 355 kts 118°
2026-05-04 22:11 63.98960 -22.12136 11156 ft 373 kts 118°
2026-05-04 22:11 63.97640 -22.06883 11407 ft 390 kts 118°
2026-05-04 22:12 63.96272 -22.01448 11871 ft 399 kts 118°
2026-05-04 22:12 63.94877 -21.95918 12394 ft 406 kts 119°
2026-05-04 22:12 63.93455 -21.90290 12884 ft 414 kts 119°
2026-05-04 22:12 63.92007 -21.84571 13434 ft 420 kts 119°
2026-05-04 22:13 63.90536 -21.78777 14003 ft 426 kts 119°
2026-05-04 22:13 63.89042 -21.72912 14510 ft 431 kts 119°
2026-05-04 22:13 63.87549 -21.67067 15018 ft 435 kts 120°
2026-05-04 22:13 63.86019 -21.61091 15549 ft 440 kts 120°
2026-05-04 22:14 63.84471 -21.55063 16072 ft 444 kts 120°
2026-05-04 22:14 63.82905 -21.48983 16610 ft 448 kts 120°
2026-05-04 22:14 63.81316 -21.42832 17123 ft 454 kts 120°
2026-05-04 22:14 63.79707 -21.36619 17608 ft 460 kts 120°
2026-05-04 22:15 63.78100 -21.30428 18117 ft 464 kts 120°
2026-05-04 22:15 63.76653 -21.23866 18584 ft 468 kts 109°
2026-05-04 22:15 63.75848 -21.16753 19026 ft 467 kts 96°
2026-05-04 22:15 63.75375 -21.09463 19446 ft 469 kts 94°
2026-05-04 22:16 63.74939 -21.02130 19977 ft 470 kts 94°
2026-05-04 22:16 63.74494 -20.94795 20438 ft 472 kts 95°
2026-05-04 22:16 63.74042 -20.87509 20838 ft 476 kts 95°
2026-05-04 22:16 63.73573 -20.80083 21251 ft 479 kts 95°
2026-05-04 22:17 63.73092 -20.72594 21660 ft 482 kts 95°
2026-05-04 22:17 63.72605 -20.65085 22061 ft 485 kts 95°
2026-05-04 22:17 63.72110 -20.57530 22470 ft 488 kts 95°
2026-05-04 22:17 63.71607 -20.49929 22868 ft 492 kts 95°
2026-05-04 22:18 63.71128 -20.42221 23129 ft 497 kts 93°
2026-05-04 22:18 63.70794 -20.34449 23529 ft 498 kts 91°
2026-05-04 22:18 63.70552 -20.26723 23899 ft 500 kts 90°
2026-05-04 22:18 63.70338 -20.18859 24210 ft 503 kts 89°
2026-05-04 22:19 63.70123 -20.10957 24516 ft 505 kts 90°